Time,TemperatureF,DewpointF,PressureIn,WindDirection,WindDirectionDegrees,WindSpeedMPH,WindSpeedGustMPH,Humidity,HourlyPrecipIn,Conditions,Clouds,dailyrainin,SolarRadiationWatts/m^2,SoftwareType,DateUTC
2013-01-16 00:04:00,18.7,13.5,30.25,WSW,248,9.0,11.0,80,0.00,,,0.00,0.0,meteohub,2013-01-16 06:04:00,
2013-01-16 00:10:00,18.9,13.5,30.25,WSW,248,10.0,11.0,79,0.00,,,0.00,0.0,meteohub,2013-01-16 06:10:00,
2013-01-16 00:15:00,18.9,13.5,30.25,WSW,244,10.0,11.0,79,0.00,,,0.00,0.0,meteohub,2013-01-16 06:15:00,
2013-01-16 00:20:00,19.2,13.5,30.25,WSW,244,12.0,12.0,78,0.00,,,0.00,0.0,meteohub,2013-01-16 06:20:00,
2013-01-16 00:25:00,19.2,13.5,30.25,WSW,244,11.0,11.0,78,0.00,,,0.00,0.0,meteohub,2013-01-16 06:25:00,
2013-01-16 00:30:00,19.2,13.3,30.25,WSW,243,11.0,12.0,77,0.00,,,0.00,0.0,meteohub,2013-01-16 06:30:00,
2013-01-16 00:35:00,19.2,13.5,30.24,WSW,245,9.0,12.0,78,0.00,,,0.00,0.0,meteohub,2013-01-16 06:35:00,
2013-01-16 00:40:00,19.2,13.5,30.24,WSW,244,10.0,12.0,78,0.00,,,0.00,0.0,meteohub,2013-01-16 06:40:00,
2013-01-16 00:45:00,19.2,13.3,30.24,WSW,245,9.0,11.0,77,0.00,,,0.00,0.0,meteohub,2013-01-16 06:45:00,
2013-01-16 00:50:00,19.0,13.1,30.25,WSW,250,8.0,11.0,77,0.00,,,0.00,0.0,meteohub,2013-01-16 06:50:00,
2013-01-16 00:55:00,18.9,13.1,30.24,WSW,247,11.0,11.0,78,0.00,,,0.00,0.0,meteohub,2013-01-16 06:55:00,
2013-01-16 01:00:00,19.0,13.1,30.25,WSW,247,9.0,12.0,77,0.00,,,0.00,0.0,meteohub,2013-01-16 07:00:00,
2013-01-16 01:05:00,19.0,13.1,30.25,WSW,250,8.0,12.0,77,0.00,,,0.00,0.0,meteohub,2013-01-16 07:05:00,
2013-01-16 01:10:00,18.9,13.1,30.25,WSW,252,6.0,12.0,78,0.00,,,0.00,0.0,meteohub,2013-01-16 07:10:00,
2013-01-16 01:15:00,18.9,13.1,30.24,WSW,255,7.0,11.0,78,0.00,,,0.00,0.0,meteohub,2013-01-16 07:15:00,
2013-01-16 01:21:00,18.9,13.1,30.24,WSW,252,7.0,9.0,78,0.00,,,0.00,0.0,meteohub,2013-01-16 07:21:00,
2013-01-16 01:26:00,18.9,13.1,30.24,WSW,249,8.0,9.0,78,0.00,,,0.00,0.0,meteohub,2013-01-16 07:26:00,
2013-01-16 01:31:00,18.9,13.1,30.24,WSW,248,8.0,9.0,78,0.00,,,0.00,0.0,meteohub,2013-01-16 07:31:00,
2013-01-16 01:36:00,19.0,13.1,30.23,WSW,248,7.0,9.0,77,0.00,,,0.00,0.0,meteohub,2013-01-16 07:36:00,
2013-01-16 01:41:00,19.0,13.1,30.23,WSW,248,7.0,9.0,77,0.00,,,0.00,0.0,meteohub,2013-01-16 07:41:00,
2013-01-16 01:46:00,19.0,12.7,30.22,WSW,248,8.0,9.0,76,0.00,,,0.00,0.0,meteohub,2013-01-16 07:46:00,
2013-01-16 01:51:00,19.2,12.9,30.22,WSW,254,10.0,10.0,76,0.00,,,0.00,0.0,meteohub,2013-01-16 07:51:00,
2013-01-16 01:56:00,19.6,13.3,30.23,West,261,10.0,11.0,76,0.00,,,0.00,0.0,meteohub,2013-01-16 07:56:00,
2013-01-16 02:01:00,19.8,13.5,30.24,West,263,8.0,11.0,76,0.00,,,0.00,0.0,meteohub,2013-01-16 08:01:00,
2013-01-16 02:06:00,19.9,13.3,30.23,West,269,8.0,11.0,75,0.00,,,0.00,0.0,meteohub,2013-01-16 08:06:00,
2013-01-16 02:11:00,19.9,13.6,30.22,West,267,10.0,11.0,76,0.00,,,0.00,0.0,meteohub,2013-01-16 08:11:00,
2013-01-16 02:16:00,20.1,13.5,30.23,West,267,11.0,12.0,75,0.00,,,0.00,0.0,meteohub,2013-01-16 08:16:00,
2013-01-16 02:21:00,20.3,13.6,30.23,West,266,11.0,12.0,75,0.00,,,0.00,0.0,meteohub,2013-01-16 08:21:00,
2013-01-16 02:26:00,20.5,13.5,30.23,West,265,11.0,13.0,74,0.00,,,0.00,0.0,meteohub,2013-01-16 08:26:00,
2013-01-16 02:31:00,20.5,13.5,30.23,West,267,10.0,13.0,74,0.00,,,0.00,0.0,meteohub,2013-01-16 08:31:00,
2013-01-16 02:36:00,20.5,13.5,30.23,West,265,9.0,13.0,74,0.00,,,0.00,0.0,meteohub,2013-01-16 08:36:00,
2013-01-16 02:41:00,20.5,13.5,30.23,West,264,10.0,12.0,74,0.00,,,0.00,0.0,meteohub,2013-01-16 08:41:00,
2013-01-16 02:46:00,20.3,13.6,30.23,West,261,10.0,12.0,75,0.00,,,0.00,0.0,meteohub,2013-01-16 08:46:00,
2013-01-16 02:52:00,19.9,13.3,30.23,West,259,10.0,11.0,75,0.00,,,0.00,0.0,meteohub,2013-01-16 08:52:00,
2013-01-16 02:57:00,19.9,13.3,30.23,West,260,9.0,11.0,75,0.00,,,0.00,0.0,meteohub,2013-01-16 08:57:00,
2013-01-16 03:02:00,19.9,13.6,30.23,West,261,11.0,11.0,76,0.00,,,0.00,0.0,meteohub,2013-01-16 09:02:00,
2013-01-16 03:07:00,20.3,13.6,30.23,West,259,10.0,11.0,75,0.00,,,0.00,0.0,meteohub,2013-01-16 09:07:00,
2013-01-16 03:12:00,20.7,14.0,30.23,West,265,10.0,11.0,75,0.00,,,0.00,0.0,meteohub,2013-01-16 09:12:00,
2013-01-16 03:17:00,20.8,13.8,30.23,West,263,10.0,11.0,74,0.00,,,0.00,0.0,meteohub,2013-01-16 09:17:00,
2013-01-16 03:22:00,21.0,14.0,30.22,West,265,11.0,12.0,74,0.00,,,0.00,0.0,meteohub,2013-01-16 09:22:00,
2013-01-16 03:27:00,21.2,13.8,30.22,West,268,9.0,12.0,73,0.00,,,0.00,0.0,meteohub,2013-01-16 09:27:00,
2013-01-16 03:32:00,21.4,14.0,30.22,West,264,11.0,13.0,73,0.00,,,0.00,0.0,meteohub,2013-01-16 09:32:00,
2013-01-16 03:37:00,21.4,13.8,30.22,West,269,10.0,13.0,72,0.00,,,0.00,0.0,meteohub,2013-01-16 09:37:00,
2013-01-16 03:42:00,21.4,13.8,30.22,West,270,9.0,13.0,72,0.00,,,0.00,0.0,meteohub,2013-01-16 09:42:00,
2013-01-16 03:47:00,21.7,13.8,30.22,West,270,10.0,13.0,71,0.00,,,0.00,0.0,meteohub,2013-01-16 09:47:00,
2013-01-16 03:52:00,21.9,13.6,30.22,West,273,12.0,13.0,70,0.00,,,0.00,0.0,meteohub,2013-01-16 09:52:00,
2013-01-16 03:57:00,22.1,13.8,30.22,West,271,11.0,13.0,70,0.00,,,0.00,0.0,meteohub,2013-01-16 09:57:00,
2013-01-16 04:02:00,22.1,13.8,30.22,West,271,11.0,13.0,70,0.00,,,0.00,0.0,meteohub,2013-01-16 10:02:00,
2013-01-16 04:07:00,22.3,14.4,30.22,West,271,10.0,13.0,71,0.00,,,0.00,0.0,meteohub,2013-01-16 10:07:00,
2013-01-16 04:12:00,22.5,14.2,30.22,West,275,8.0,13.0,70,0.00,,,0.00,0.0,meteohub,2013-01-16 10:12:00,
2013-01-16 04:17:00,22.6,14.4,30.22,West,271,10.0,12.0,70,0.00,,,0.00,0.0,meteohub,2013-01-16 10:17:00,
2013-01-16 04:22:00,22.8,14.5,30.21,West,269,11.0,13.0,70,0.00,,,0.00,0.0,meteohub,2013-01-16 10:22:00,
2013-01-16 04:27:00,22.8,14.5,30.21,West,268,10.0,13.0,70,0.00,,,0.00,0.0,meteohub,2013-01-16 10:27:00,
2013-01-16 04:32:00,23.2,15.3,30.21,West,267,8.0,12.0,71,0.00,,,0.00,0.0,meteohub,2013-01-16 10:32:00,
2013-01-16 04:37:00,23.5,15.4,30.21,West,267,8.0,12.0,71,0.00,,,0.00,0.0,meteohub,2013-01-16 10:37:00,
2013-01-16 04:42:00,23.9,15.8,30.20,West,273,7.0,11.0,71,0.00,,,0.00,0.0,meteohub,2013-01-16 10:42:00,
2013-01-16 04:47:00,24.4,16.3,30.19,West,277,4.0,10.0,71,0.00,,,0.00,0.0,meteohub,2013-01-16 10:47:00,
2013-01-16 04:52:00,25.0,16.5,30.19,West,273,5.0,9.0,70,0.00,,,0.00,0.0,meteohub,2013-01-16 10:52:00,
2013-01-16 04:57:00,25.2,17.1,30.19,West,273,4.0,8.0,71,0.00,,,0.00,0.0,meteohub,2013-01-16 10:57:00,
2013-01-16 05:02:00,25.2,17.1,30.19,West,270,8.0,8.0,71,0.00,,,0.00,0.0,meteohub,2013-01-16 11:02:00,
2013-01-16 05:07:00,25.7,17.6,30.19,West,273,9.0,11.0,71,0.00,,,0.00,0.0,meteohub,2013-01-16 11:07:00,
2013-01-16 05:12:00,26.1,17.6,30.19,West,276,10.0,12.0,70,0.00,,,0.00,0.0,meteohub,2013-01-16 11:12:00,
2013-01-16 05:17:00,26.2,17.4,30.19,West,281,11.0,12.0,69,0.00,,,0.00,0.0,meteohub,2013-01-16 11:17:00,
2013-01-16 05:22:00,26.4,17.6,30.19,WNW,286,9.0,13.0,69,0.00,,,0.00,0.0,meteohub,2013-01-16 11:22:00,
2013-01-16 05:27:00,26.2,17.4,30.18,West,272,10.0,13.0,69,0.00,,,0.00,0.0,meteohub,2013-01-16 11:27:00,
2013-01-16 05:32:00,25.9,17.4,30.18,West,270,8.0,13.0,70,0.00,,,0.00,0.0,meteohub,2013-01-16 11:32:00,
2013-01-16 05:37:00,25.9,17.8,30.19,West,277,7.0,12.0,71,0.00,,,0.00,0.0,meteohub,2013-01-16 11:37:00,
2013-01-16 05:42:00,25.7,18.0,30.18,West,274,8.0,11.0,72,0.00,,,0.00,0.0,meteohub,2013-01-16 11:42:00,
2013-01-16 05:47:00,26.1,18.3,30.18,WNW,283,9.0,11.0,72,0.00,,,0.00,0.0,meteohub,2013-01-16 11:47:00,
2013-01-16 05:52:00,26.8,19.0,30.18,WNW,285,8.0,11.0,72,0.00,,,0.00,0.0,meteohub,2013-01-16 11:52:00,
2013-01-16 05:57:00,27.7,19.8,30.18,WNW,286,8.0,10.0,72,0.00,,,0.00,0.0,meteohub,2013-01-16 11:57:00,
2013-01-16 06:02:00,28.2,20.1,30.18,WNW,283,8.0,10.0,71,0.00,,,0.00,0.0,meteohub,2013-01-16 12:02:00,
2013-01-16 06:07:00,28.6,20.1,30.18,WNW,286,8.0,10.0,70,0.00,,,0.00,0.0,meteohub,2013-01-16 12:07:00,
2013-01-16 06:13:00,28.9,20.5,30.18,WNW,286,9.0,11.0,70,0.00,,,0.00,0.0,meteohub,2013-01-16 12:13:00,
2013-01-16 06:18:00,29.7,21.0,30.18,WNW,289,9.0,12.0,70,0.00,,,0.00,0.0,meteohub,2013-01-16 12:18:00,
2013-01-16 06:23:00,30.0,21.4,30.18,WNW,288,8.0,12.0,70,0.00,,,0.00,0.0,meteohub,2013-01-16 12:23:00,
2013-01-16 06:28:00,30.2,21.6,30.18,WNW,293,6.0,12.0,70,0.00,,,0.00,0.0,meteohub,2013-01-16 12:28:00,
2013-01-16 06:33:00,30.6,21.9,30.18,West,278,6.0,12.0,70,0.00,,,0.00,0.0,meteohub,2013-01-16 12:33:00,
2013-01-16 06:38:00,30.4,21.7,30.19,West,277,6.0,10.0,70,0.00,,,0.00,0.0,meteohub,2013-01-16 12:38:00,
2013-01-16 06:43:00,30.0,21.7,30.19,West,279,8.0,10.0,71,0.00,,,0.00,0.0,meteohub,2013-01-16 12:43:00,
2013-01-16 06:48:00,30.4,22.1,30.19,West,281,7.0,10.0,71,0.00,,,0.00,0.0,meteohub,2013-01-16 12:48:00,
2013-01-16 06:53:00,30.4,22.1,30.19,West,279,7.0,10.0,71,0.00,,,0.00,0.0,meteohub,2013-01-16 12:53:00,
2013-01-16 06:58:00,30.7,22.5,30.19,WNW,285,7.0,10.0,71,0.00,,,0.00,0.0,meteohub,2013-01-16 12:58:00,
2013-01-16 07:03:00,31.5,23.2,30.18,WNW,296,12.0,12.0,71,0.00,,,0.00,0.0,meteohub,2013-01-16 13:03:00,
2013-01-16 07:08:00,32.5,23.5,30.19,WNW,291,10.0,12.0,69,0.00,,,0.00,0.0,meteohub,2013-01-16 13:08:00,
2013-01-16 07:13:00,32.7,23.4,30.19,WNW,300,9.0,13.0,68,0.00,,,0.00,0.0,meteohub,2013-01-16 13:13:00,
2013-01-16 07:18:00,32.7,23.4,30.19,WNW,294,11.0,13.0,68,0.00,,,0.00,0.0,meteohub,2013-01-16 13:18:00,
2013-01-16 07:23:00,32.7,23.4,30.19,WNW,298,8.0,13.0,68,0.00,,,0.00,0.0,meteohub,2013-01-16 13:23:00,
2013-01-16 07:28:00,32.7,23.4,30.19,WNW,300,8.0,11.0,68,0.00,,,0.00,0.0,meteohub,2013-01-16 13:28:00,
2013-01-16 07:33:00,32.7,23.7,30.19,NW,304,9.0,11.0,69,0.00,,,0.00,0.0,meteohub,2013-01-16 13:33:00,
2013-01-16 07:38:00,33.1,24.1,30.19,WNW,302,8.0,11.0,69,0.00,,,0.00,0.0,meteohub,2013-01-16 13:38:00,
2013-01-16 07:43:00,33.6,24.3,30.20,NW,304,8.0,12.0,68,0.00,,,0.00,0.0,meteohub,2013-01-16 13:43:00,
2013-01-16 07:49:00,34.2,24.4,30.20,WNW,302,9.0,12.0,67,0.00,,,0.00,0.0,meteohub,2013-01-16 13:49:00,
2013-01-16 07:54:00,34.5,24.3,30.20,NW,308,8.0,13.0,66,0.00,,,0.00,0.0,meteohub,2013-01-16 13:54:00,
2013-01-16 07:59:00,34.7,24.4,30.21,NW,304,8.0,13.0,66,0.00,,,0.00,0.0,meteohub,2013-01-16 13:59:00,
2013-01-16 08:04:00,34.9,24.6,30.21,NW,306,7.0,13.0,66,0.00,,,0.00,5.0,meteohub,2013-01-16 14:04:00,
2013-01-16 08:09:00,35.1,24.8,30.21,NW,310,10.0,11.0,66,0.00,,,0.00,9.0,meteohub,2013-01-16 14:09:00,
2013-01-16 08:14:00,35.4,24.8,30.21,NW,317,9.0,13.0,65,0.00,,,0.00,12.0,meteohub,2013-01-16 14:14:00,
2013-01-16 08:19:00,35.4,24.8,30.21,NW,318,8.0,13.0,65,0.00,,,0.00,18.0,meteohub,2013-01-16 14:19:00,
2013-01-16 08:24:00,35.8,25.2,30.21,NW,317,9.0,13.0,65,0.00,,,0.00,23.0,meteohub,2013-01-16 14:24:00,
2013-01-16 08:29:00,36.0,25.3,30.21,NW,313,9.0,11.0,65,0.00,,,0.00,23.0,meteohub,2013-01-16 14:29:00,
2013-01-16 08:34:00,36.1,25.2,30.20,NW,308,11.0,11.0,64,0.00,,,0.00,32.0,meteohub,2013-01-16 14:34:00,
2013-01-16 08:39:00,36.5,25.5,30.20,NW,311,11.0,12.0,64,0.00,,,0.00,40.0,meteohub,2013-01-16 14:39:00,
2013-01-16 08:44:00,36.9,25.5,30.21,NW,326,8.0,13.0,63,0.00,,,0.00,40.0,meteohub,2013-01-16 14:44:00,
2013-01-16 08:49:00,36.9,25.0,30.21,NW,314,12.0,14.0,62,0.00,,,0.00,26.0,meteohub,2013-01-16 14:49:00,
2013-01-16 08:54:00,37.2,25.0,30.21,NW,313,11.0,14.0,61,0.00,,,0.00,107.0,meteohub,2013-01-16 14:54:00,
2013-01-16 08:59:00,37.6,25.7,30.21,NW,315,9.0,15.0,62,0.00,,,0.00,135.0,meteohub,2013-01-16 14:59:00,
2013-01-16 09:04:00,37.9,25.7,30.22,NW,307,10.0,15.0,61,0.00,,,0.00,144.0,meteohub,2013-01-16 15:04:00,
2013-01-16 09:09:00,38.5,25.9,30.22,NW,309,12.0,16.0,60,0.00,,,0.00,181.0,meteohub,2013-01-16 15:09:00,
2013-01-16 09:14:00,39.0,25.9,30.22,NW,317,10.0,16.0,59,0.00,,,0.00,192.0,meteohub,2013-01-16 15:14:00,
2013-01-16 09:19:00,39.6,26.1,30.23,NW,323,12.0,16.0,58,0.00,,,0.00,206.0,meteohub,2013-01-16 15:19:00,
2013-01-16 09:25:00,39.7,25.7,30.22,NW,322,13.0,15.0,57,0.00,,,0.00,220.0,meteohub,2013-01-16 15:25:00,
2013-01-16 09:30:00,40.3,25.9,30.22,NW,321,13.0,18.0,56,0.00,,,0.00,234.0,meteohub,2013-01-16 15:30:00,
2013-01-16 09:35:00,40.5,26.1,30.23,NNW,330,10.0,18.0,56,0.00,,,0.00,248.0,meteohub,2013-01-16 15:35:00,
2013-01-16 09:40:00,40.6,25.7,30.23,NNW,329,12.0,18.0,55,0.00,,,0.00,262.0,meteohub,2013-01-16 15:40:00,
2013-01-16 09:45:00,41.4,25.9,30.24,NNW,327,15.0,18.0,54,0.00,,,0.00,274.0,meteohub,2013-01-16 15:45:00,
2013-01-16 09:50:00,41.5,26.1,30.24,NNW,333,14.0,19.0,54,0.00,,,0.00,290.0,meteohub,2013-01-16 15:50:00,
2013-01-16 09:55:00,42.1,26.2,30.23,North,5,9.0,19.0,53,0.00,,,0.00,302.0,meteohub,2013-01-16 15:55:00,
2013-01-16 10:00:00,42.4,26.1,30.24,NNW,344,10.0,20.0,52,0.00,,,0.00,336.0,meteohub,2013-01-16 16:00:00,
2013-01-16 10:05:00,42.4,25.5,30.24,NNW,331,22.0,22.0,51,0.00,,,0.00,258.0,meteohub,2013-01-16 16:05:00,
2013-01-16 10:10:00,42.6,26.2,30.24,North,355,21.0,23.0,52,0.00,,,0.00,278.0,meteohub,2013-01-16 16:10:00,
2013-01-16 10:15:00,42.8,25.9,30.24,North,0,15.0,23.0,51,0.00,,,0.00,309.0,meteohub,2013-01-16 16:15:00,
2013-01-16 10:20:00,43.3,26.4,30.24,NNW,342,18.0,23.0,51,0.00,,,0.00,346.0,meteohub,2013-01-16 16:20:00,
2013-01-16 10:25:00,43.9,26.4,30.24,NNW,343,11.0,21.0,50,0.00,,,0.00,394.0,meteohub,2013-01-16 16:25:00,
2013-01-16 10:31:00,44.6,26.6,30.23,NNW,341,14.0,21.0,49,0.00,,,0.00,341.0,meteohub,2013-01-16 16:31:00,
2013-01-16 10:36:00,44.8,26.8,30.23,North,9,13.0,21.0,49,0.00,,,0.00,325.0,meteohub,2013-01-16 16:36:00,
2013-01-16 10:41:00,44.6,26.6,30.23,North,5,9.0,18.0,49,0.00,,,0.00,332.0,meteohub,2013-01-16 16:41:00,
2013-01-16 10:46:00,44.8,26.8,30.23,North,5,11.0,20.0,49,0.00,,,0.00,343.0,meteohub,2013-01-16 16:46:00,
2013-01-16 10:51:00,44.8,26.8,30.23,NNE,15,9.0,20.0,49,0.00,,,0.00,345.0,meteohub,2013-01-16 16:51:00,
2013-01-16 10:56:00,45.0,27.0,30.23,North,10,13.0,20.0,49,0.00,,,0.00,309.0,meteohub,2013-01-16 16:56:00,
2013-01-16 11:01:00,45.1,26.6,30.22,North,5,9.0,20.0,48,0.00,,,0.00,396.0,meteohub,2013-01-16 17:01:00,
2013-01-16 11:06:00,45.5,27.0,30.23,NNE,28,14.0,19.0,48,0.00,,,0.00,383.0,meteohub,2013-01-16 17:06:00,
2013-01-16 11:11:00,45.9,27.9,30.22,NNE,29,14.0,20.0,49,0.00,,,0.00,475.0,meteohub,2013-01-16 17:11:00,
2013-01-16 11:16:00,46.4,27.9,30.22,NNE,12,15.0,20.0,48,0.00,,,0.00,483.0,meteohub,2013-01-16 17:16:00,
2013-01-16 11:21:00,46.6,27.9,30.22,North,5,15.0,20.0,48,0.00,,,0.00,489.0,meteohub,2013-01-16 17:21:00,
2013-01-16 11:26:00,46.8,27.7,30.22,NNE,26,14.0,18.0,47,0.00,,,0.00,497.0,meteohub,2013-01-16 17:26:00,
2013-01-16 11:31:00,47.1,27.9,30.21,NNE,21,14.0,19.0,47,0.00,,,0.00,504.0,meteohub,2013-01-16 17:31:00,
2013-01-16 11:36:00,47.3,28.6,30.21,NNE,13,13.0,19.0,48,0.00,,,0.00,512.0,meteohub,2013-01-16 17:36:00,
2013-01-16 11:41:00,47.7,28.9,30.21,NNE,33,12.0,19.0,48,0.00,,,0.00,520.0,meteohub,2013-01-16 17:41:00,
2013-01-16 11:46:00,47.8,28.6,30.21,NNE,24,11.0,19.0,47,0.00,,,0.00,526.0,meteohub,2013-01-16 17:46:00,
2013-01-16 11:52:00,48.0,28.8,30.21,NNE,15,14.0,18.0,47,0.00,,,0.00,534.0,meteohub,2013-01-16 17:52:00,
2013-01-16 11:57:00,48.4,29.1,30.20,NE,34,10.0,17.0,47,0.00,,,0.00,536.0,meteohub,2013-01-16 17:57:00,
2013-01-16 12:02:00,48.9,30.0,30.20,NNE,15,9.0,17.0,48,0.00,,,0.00,541.0,meteohub,2013-01-16 18:02:00,
2013-01-16 12:07:00,48.9,29.7,30.19,North,11,7.0,17.0,47,0.00,,,0.00,545.0,meteohub,2013-01-16 18:07:00,
2013-01-16 12:12:00,49.5,30.0,30.19,NNE,30,11.0,17.0,47,0.00,,,0.00,550.0,meteohub,2013-01-16 18:12:00,
2013-01-16 12:17:00,49.3,30.4,30.19,NNE,18,11.0,19.0,48,0.00,,,0.00,554.0,meteohub,2013-01-16 18:17:00,
2013-01-16 12:22:00,49.6,30.7,30.19,NE,36,12.0,19.0,48,0.00,,,0.00,557.0,meteohub,2013-01-16 18:22:00,
2013-01-16 12:27:00,49.6,30.2,30.19,NE,34,16.0,19.0,47,0.00,,,0.00,563.0,meteohub,2013-01-16 18:27:00,
2013-01-16 12:32:00,49.6,30.2,30.19,NE,36,10.0,18.0,47,0.00,,,0.00,566.0,meteohub,2013-01-16 18:32:00,
2013-01-16 12:37:00,49.8,30.4,30.19,NNE,26,9.0,18.0,47,0.00,,,0.00,568.0,meteohub,2013-01-16 18:37:00,
2013-01-16 12:42:00,50.0,30.0,30.19,NNE,28,11.0,18.0,46,0.00,,,0.00,571.0,meteohub,2013-01-16 18:42:00,
2013-01-16 12:47:00,50.2,30.2,30.19,NNE,27,11.0,17.0,46,0.00,,,0.00,575.0,meteohub,2013-01-16 18:47:00,
2013-01-16 12:52:00,50.4,30.4,30.19,NNE,18,8.0,17.0,46,0.00,,,0.00,589.0,meteohub,2013-01-16 18:52:00,
2013-01-16 12:57:00,50.9,30.9,30.19,NNE,27,11.0,17.0,46,0.00,,,0.00,591.0,meteohub,2013-01-16 18:57:00,
2013-01-16 13:02:00,51.1,30.6,30.19,NNE,19,12.0,16.0,45,0.00,,,0.00,577.0,meteohub,2013-01-16 19:02:00,
2013-01-16 13:07:00,50.9,30.4,30.19,NNE,24,14.0,17.0,45,0.00,,,0.00,577.0,meteohub,2013-01-16 19:07:00,
2013-01-16 13:12:00,50.7,29.7,30.19,North,0,7.0,17.0,44,0.00,,,0.00,575.0,meteohub,2013-01-16 19:12:00,
2013-01-16 13:17:00,51.1,29.8,30.19,NE,36,10.0,17.0,44,0.00,,,0.00,573.0,meteohub,2013-01-16 19:17:00,
2013-01-16 13:22:00,51.4,30.2,30.18,North,5,8.0,15.0,44,0.00,,,0.00,571.0,meteohub,2013-01-16 19:22:00,
2013-01-16 13:27:00,51.8,30.6,30.18,NNE,15,15.0,17.0,44,0.00,,,0.00,570.0,meteohub,2013-01-16 19:27:00,
2013-01-16 13:32:00,51.6,30.4,30.18,North,355,6.0,17.0,44,0.00,,,0.00,566.0,meteohub,2013-01-16 19:32:00,
2013-01-16 13:37:00,51.8,30.6,30.18,NNW,340,14.0,17.0,44,0.00,,,0.00,563.0,meteohub,2013-01-16 19:37:00,
2013-01-16 13:42:00,51.6,30.4,30.17,North,5,7.0,16.0,44,0.00,,,0.00,559.0,meteohub,2013-01-16 19:42:00,
2013-01-16 13:47:00,51.6,30.4,30.17,NE,34,12.0,18.0,44,0.00,,,0.00,555.0,meteohub,2013-01-16 19:47:00,
2013-01-16 13:52:00,52.7,31.5,30.17,NNW,333,11.0,18.0,44,0.00,,,0.00,552.0,meteohub,2013-01-16 19:52:00,
2013-01-16 13:57:00,52.3,30.6,30.17,NNW,331,12.0,18.0,43,0.00,,,0.00,547.0,meteohub,2013-01-16 19:57:00,
2013-01-16 14:02:00,52.3,30.6,30.17,North,350,10.0,17.0,43,0.00,,,0.00,541.0,meteohub,2013-01-16 20:02:00,
2013-01-16 14:07:00,52.5,30.0,30.17,NNW,337,13.0,16.0,42,0.00,,,0.00,536.0,meteohub,2013-01-16 20:07:00,
2013-01-16 14:12:00,52.2,29.8,30.17,NNW,348,10.0,16.0,42,0.00,,,0.00,531.0,meteohub,2013-01-16 20:12:00,
2013-01-16 14:17:00,52.3,29.8,30.17,NNW,337,10.0,16.0,42,0.00,,,0.00,529.0,meteohub,2013-01-16 20:17:00,
2013-01-16 14:22:00,52.3,30.6,30.17,NNW,348,11.0,17.0,43,0.00,,,0.00,519.0,meteohub,2013-01-16 20:22:00,
2013-01-16 14:27:00,52.3,30.6,30.17,NNW,328,11.0,17.0,43,0.00,,,0.00,512.0,meteohub,2013-01-16 20:27:00,
2013-01-16 14:32:00,52.5,30.0,30.17,North,355,12.0,17.0,42,0.00,,,0.00,506.0,meteohub,2013-01-16 20:32:00,
2013-01-16 14:37:00,52.3,29.8,30.17,NW,326,13.0,16.0,42,0.00,,,0.00,499.0,meteohub,2013-01-16 20:37:00,
2013-01-16 14:42:00,52.5,29.5,30.17,NNW,345,12.0,18.0,41,0.00,,,0.00,501.0,meteohub,2013-01-16 20:42:00,
2013-01-16 14:47:00,52.7,30.2,30.17,North,355,13.0,18.0,42,0.00,,,0.00,520.0,meteohub,2013-01-16 20:47:00,
2013-01-16 14:52:00,52.9,29.8,30.17,NW,322,13.0,16.0,41,0.00,,,0.00,536.0,meteohub,2013-01-16 20:52:00,
2013-01-16 14:57:00,53.2,29.5,30.17,NNW,331,11.0,16.0,40,0.00,,,0.00,577.0,meteohub,2013-01-16 20:57:00,
2013-01-16 15:02:00,52.9,29.3,30.17,NW,322,15.0,16.0,40,0.00,,,0.00,346.0,meteohub,2013-01-16 21:02:00,
2013-01-16 15:07:00,52.3,29.3,30.17,North,355,11.0,17.0,41,0.00,,,0.00,211.0,meteohub,2013-01-16 21:07:00,
2013-01-16 15:12:00,51.8,29.5,30.17,NNW,339,14.0,20.0,42,0.00,,,0.00,390.0,meteohub,2013-01-16 21:12:00,
2013-01-16 15:17:00,52.3,29.3,30.17,NW,312,16.0,20.0,41,0.00,,,0.00,436.0,meteohub,2013-01-16 21:17:00,
2013-01-16 15:22:00,52.7,29.7,30.17,NNW,347,11.0,20.0,41,0.00,,,0.00,417.0,meteohub,2013-01-16 21:22:00,
2013-01-16 15:27:00,52.7,29.1,30.17,NNW,335,16.0,18.0,40,0.00,,,0.00,403.0,meteohub,2013-01-16 21:27:00,
2013-01-16 15:32:00,52.2,29.1,30.17,NNW,327,12.0,18.0,41,0.00,,,0.00,390.0,meteohub,2013-01-16 21:32:00,
2013-01-16 15:37:00,52.3,28.8,30.17,NNW,342,13.0,18.0,40,0.00,,,0.00,380.0,meteohub,2013-01-16 21:37:00,
2013-01-16 15:42:00,52.5,29.5,30.17,NNW,342,16.0,18.0,41,0.00,,,0.00,366.0,meteohub,2013-01-16 21:42:00,
2013-01-16 15:47:00,52.5,29.5,30.17,NNW,348,10.0,17.0,41,0.00,,,0.00,353.0,meteohub,2013-01-16 21:47:00,
2013-01-16 15:52:00,52.5,29.5,30.17,North,0,6.0,16.0,41,0.00,,,0.00,341.0,meteohub,2013-01-16 21:52:00,
2013-01-16 15:57:00,52.5,29.5,30.17,NNW,346,9.0,16.0,41,0.00,,,0.00,329.0,meteohub,2013-01-16 21:57:00,
2013-01-16 16:02:00,52.2,29.1,30.17,NNW,329,11.0,16.0,41,0.00,,,0.00,315.0,meteohub,2013-01-16 22:02:00,
2013-01-16 16:07:00,52.2,29.1,30.17,NNW,335,11.0,17.0,41,0.00,,,0.00,301.0,meteohub,2013-01-16 22:07:00,
2013-01-16 16:12:00,52.2,29.1,30.17,NNW,344,10.0,17.0,41,0.00,,,0.00,287.0,meteohub,2013-01-16 22:12:00,
2013-01-16 16:17:00,52.0,28.9,30.17,North,349,14.0,16.0,41,0.00,,,0.00,272.0,meteohub,2013-01-16 22:17:00,
2013-01-16 16:22:00,52.0,29.7,30.18,NNW,341,14.0,17.0,42,0.00,,,0.00,260.0,meteohub,2013-01-16 22:22:00,
2013-01-16 16:27:00,52.2,29.8,30.18,North,350,13.0,17.0,42,0.00,,,0.00,244.0,meteohub,2013-01-16 22:27:00,
2013-01-16 16:32:00,52.0,29.7,30.18,North,350,8.0,16.0,42,0.00,,,0.00,227.0,meteohub,2013-01-16 22:32:00,
2013-01-16 16:37:00,52.0,29.7,30.18,North,355,8.0,16.0,42,0.00,,,0.00,207.0,meteohub,2013-01-16 22:37:00,
2013-01-16 16:42:00,51.6,29.3,30.18,NNW,336,10.0,15.0,42,0.00,,,0.00,190.0,meteohub,2013-01-16 22:42:00,
2013-01-16 16:47:00,51.4,29.1,30.18,NNW,332,7.0,15.0,42,0.00,,,0.00,171.0,meteohub,2013-01-16 22:47:00,
2013-01-16 16:52:00,51.3,28.9,30.19,North,5,9.0,12.0,42,0.00,,,0.00,151.0,meteohub,2013-01-16 22:52:00,
2013-01-16 16:57:00,51.3,28.9,30.19,North,355,7.0,12.0,42,0.00,,,0.00,132.0,meteohub,2013-01-16 22:57:00,
2013-01-16 17:02:00,50.7,29.1,30.19,NNW,335,9.0,12.0,43,0.00,,,0.00,113.0,meteohub,2013-01-16 23:02:00,
2013-01-16 17:07:00,50.4,28.8,30.19,NNW,328,9.0,13.0,43,0.00,,,0.00,97.0,meteohub,2013-01-16 23:07:00,
2013-01-16 17:13:00,50.2,29.1,30.19,North,351,6.0,13.0,44,0.00,,,0.00,79.0,meteohub,2013-01-16 23:13:00,
2013-01-16 17:18:00,49.8,28.8,30.19,North,349,6.0,13.0,44,0.00,,,0.00,63.0,meteohub,2013-01-16 23:18:00,
2013-01-16 17:23:00,49.3,28.8,30.20,NNW,344,7.0,12.0,45,0.00,,,0.00,49.0,meteohub,2013-01-16 23:23:00,
2013-01-16 17:28:00,48.7,28.4,30.20,North,351,6.0,10.0,45,0.00,,,0.00,39.0,meteohub,2013-01-16 23:28:00,
2013-01-16 17:33:00,48.2,28.4,30.21,North,355,6.0,9.0,46,0.00,,,0.00,28.0,meteohub,2013-01-16 23:33:00,
2013-01-16 17:38:00,47.7,27.9,30.21,North,355,5.0,8.0,46,0.00,,,0.00,19.0,meteohub,2013-01-16 23:38:00,
2013-01-16 17:43:00,46.9,27.7,30.21,North,355,3.0,7.0,47,0.00,,,0.00,14.0,meteohub,2013-01-16 23:43:00,
2013-01-16 17:48:00,46.8,28.6,30.21,North,355,3.0,7.0,49,0.00,,,0.00,11.0,meteohub,2013-01-16 23:48:00,
2013-01-16 17:53:00,46.9,28.8,30.21,North,355,3.0,6.0,49,0.00,,,0.00,5.0,meteohub,2013-01-16 23:53:00,
2013-01-16 17:58:00,46.8,28.6,30.21,North,355,3.0,5.0,49,0.00,,,0.00,0.0,meteohub,2013-01-16 23:58:00,
2013-01-16 18:03:00,46.4,28.2,30.21,North,355,3.0,5.0,49,0.00,,,0.00,0.0,meteohub,2013-01-17 00:03:00,
2013-01-16 18:08:00,46.0,28.4,30.22,North,355,2.0,5.0,50,0.00,,,0.00,0.0,meteohub,2013-01-17 00:08:00,
2013-01-16 18:14:00,45.9,28.2,30.22,North,355,2.0,4.0,50,0.00,,,0.00,0.0,meteohub,2013-01-17 00:14:00,
2013-01-16 18:19:00,44.8,27.3,30.22,North,355,2.0,3.0,50,0.00,,,0.00,0.0,meteohub,2013-01-17 00:19:00,
2013-01-16 18:24:00,44.1,27.5,30.22,North,355,3.0,3.0,52,0.00,,,0.00,0.0,meteohub,2013-01-17 00:24:00,
2013-01-16 18:29:00,43.0,26.1,30.22,North,355,3.0,3.0,51,0.00,,,0.00,0.0,meteohub,2013-01-17 00:29:00,
2013-01-16 18:34:00,41.7,25.9,30.22,North,355,4.0,4.0,53,0.00,,,0.00,0.0,meteohub,2013-01-17 00:34:00,
2013-01-16 18:39:00,41.2,25.9,30.23,NW,321,5.0,5.0,54,0.00,,,0.00,0.0,meteohub,2013-01-17 00:39:00,
2013-01-16 18:44:00,39.9,25.0,30.23,NW,317,4.0,5.0,55,0.00,,,0.00,0.0,meteohub,2013-01-17 00:44:00,
2013-01-16 18:49:00,39.4,25.0,30.23,NW,314,5.0,5.0,56,0.00,,,0.00,0.0,meteohub,2013-01-17 00:49:00,
2013-01-16 18:54:00,38.8,25.0,30.23,NW,311,5.0,5.0,57,0.00,,,0.00,0.0,meteohub,2013-01-17 00:54:00,
2013-01-16 18:59:00,38.1,23.9,30.24,NW,309,5.0,6.0,56,0.00,,,0.00,0.0,meteohub,2013-01-17 00:59:00,
2013-01-16 19:04:00,37.6,24.1,30.23,NW,309,5.0,6.0,58,0.00,,,0.00,0.0,meteohub,2013-01-17 01:04:00,
2013-01-16 19:09:00,37.4,24.8,30.24,NW,309,5.0,6.0,60,0.00,,,0.00,0.0,meteohub,2013-01-17 01:09:00,
2013-01-16 19:14:00,36.9,23.9,30.23,WNW,287,6.0,6.0,59,0.00,,,0.00,0.0,meteohub,2013-01-17 01:14:00,
2013-01-16 19:20:00,36.3,24.1,30.24,West,278,7.0,7.0,61,0.00,,,0.00,0.0,meteohub,2013-01-17 01:20:00,
2013-01-16 19:25:00,36.0,23.9,30.24,West,270,9.0,9.0,61,0.00,,,0.00,0.0,meteohub,2013-01-17 01:25:00,
2013-01-16 19:30:00,35.2,23.5,30.24,West,266,9.0,9.0,62,0.00,,,0.00,0.0,meteohub,2013-01-17 01:30:00,
2013-01-16 19:35:00,34.9,23.9,30.24,West,264,10.0,10.0,64,0.00,,,0.00,0.0,meteohub,2013-01-17 01:35:00,
2013-01-16 19:40:00,34.7,24.1,30.25,WSW,258,12.0,12.0,65,0.00,,,0.00,0.0,meteohub,2013-01-17 01:40:00,
2013-01-16 19:45:00,34.5,24.3,30.25,WSW,254,11.0,12.0,66,0.00,,,0.00,0.0,meteohub,2013-01-17 01:45:00,
2013-01-16 19:50:00,34.7,24.4,30.25,WSW,255,10.0,12.0,66,0.00,,,0.00,0.0,meteohub,2013-01-17 01:50:00,
2013-01-16 19:55:00,34.9,24.6,30.25,WSW,257,10.0,12.0,66,0.00,,,0.00,0.0,meteohub,2013-01-17 01:55:00,
2013-01-16 20:01:00,34.7,24.4,30.26,WSW,257,10.0,11.0,66,0.00,,,0.00,0.0,meteohub,2013-01-17 02:01:00,
2013-01-16 20:06:00,34.3,24.4,30.26,WSW,256,11.0,11.0,67,0.00,,,0.00,0.0,meteohub,2013-01-17 02:06:00,
2013-01-16 20:11:00,33.6,23.9,30.26,WSW,255,9.0,11.0,67,0.00,,,0.00,0.0,meteohub,2013-01-17 02:11:00,
2013-01-16 20:16:00,33.3,23.9,30.27,West,259,10.0,11.0,68,0.00,,,0.00,0.0,meteohub,2013-01-17 02:16:00,
2013-01-16 20:21:00,33.1,24.4,30.27,West,261,10.0,11.0,70,0.00,,,0.00,0.0,meteohub,2013-01-17 02:21:00,
2013-01-16 20:26:00,33.4,25.0,30.27,West,264,10.0,11.0,71,0.00,,,0.00,0.0,meteohub,2013-01-17 02:26:00,
2013-01-16 20:31:00,33.8,25.0,30.27,West,265,10.0,11.0,70,0.00,,,0.00,0.0,meteohub,2013-01-17 02:31:00,
2013-01-16 20:36:00,34.0,24.8,30.27,West,265,10.0,11.0,69,0.00,,,0.00,0.0,meteohub,2013-01-17 02:36:00,
2013-01-16 20:41:00,33.6,24.6,30.27,West,264,9.0,11.0,69,0.00,,,0.00,0.0,meteohub,2013-01-17 02:41:00,
2013-01-16 20:46:00,33.1,24.4,30.27,West,264,9.0,11.0,70,0.00,,,0.00,0.0,meteohub,2013-01-17 02:46:00,
2013-01-16 20:51:00,33.1,24.6,30.27,West,269,9.0,11.0,71,0.00,,,0.00,0.0,meteohub,2013-01-17 02:51:00,
2013-01-16 20:56:00,33.4,25.0,30.27,West,273,8.0,10.0,71,0.00,,,0.00,0.0,meteohub,2013-01-17 02:56:00,
2013-01-16 21:01:00,33.3,24.8,30.27,West,277,10.0,10.0,71,0.00,,,0.00,0.0,meteohub,2013-01-17 03:01:00,
2013-01-16 21:06:00,34.0,25.5,30.28,West,277,10.0,10.0,71,0.00,,,0.00,0.0,meteohub,2013-01-17 03:06:00,
2013-01-16 21:12:00,33.8,24.8,30.28,West,280,10.0,11.0,69,0.00,,,0.00,0.0,meteohub,2013-01-17 03:12:00,
2013-01-16 21:17:00,33.4,24.8,30.28,West,281,11.0,11.0,70,0.00,,,0.00,0.0,meteohub,2013-01-17 03:17:00,
2013-01-16 21:22:00,33.4,25.0,30.29,WNW,285,9.0,11.0,71,0.00,,,0.00,0.0,meteohub,2013-01-17 03:22:00,
2013-01-16 21:27:00,33.4,25.0,30.29,WNW,288,10.0,11.0,71,0.00,,,0.00,0.0,meteohub,2013-01-17 03:27:00,
2013-01-16 21:32:00,34.2,25.7,30.29,WNW,295,11.0,12.0,71,0.00,,,0.00,0.0,meteohub,2013-01-17 03:32:00,
2013-01-16 21:37:00,34.5,25.7,30.29,WNW,298,11.0,12.0,70,0.00,,,0.00,0.0,meteohub,2013-01-17 03:37:00,
2013-01-16 21:42:00,34.5,25.3,30.29,WNW,298,8.0,12.0,69,0.00,,,0.00,0.0,meteohub,2013-01-17 03:42:00,
2013-01-16 21:47:00,34.7,25.5,30.29,WNW,298,9.0,11.0,69,0.00,,,0.00,0.0,meteohub,2013-01-17 03:47:00,
2013-01-16 21:52:00,34.3,25.2,30.30,WNW,298,8.0,11.0,69,0.00,,,0.00,0.0,meteohub,2013-01-17 03:52:00,
2013-01-16 21:57:00,34.2,25.0,30.30,WNW,298,9.0,11.0,69,0.00,,,0.00,0.0,meteohub,2013-01-17 03:57:00,
2013-01-16 22:02:00,33.6,24.8,30.30,WNW,298,9.0,10.0,70,0.00,,,0.00,0.0,meteohub,2013-01-17 04:02:00,
2013-01-16 22:07:00,32.7,24.4,30.30,WNW,286,8.0,11.0,71,0.00,,,0.00,0.0,meteohub,2013-01-17 04:07:00,
2013-01-16 22:12:00,32.4,24.3,30.30,West,278,9.0,11.0,72,0.00,,,0.00,0.0,meteohub,2013-01-17 04:12:00,
2013-01-16 22:17:00,32.4,24.3,30.30,WNW,282,10.0,11.0,72,0.00,,,0.00,0.0,meteohub,2013-01-17 04:17:00,
2013-01-16 22:22:00,32.7,24.6,30.30,WNW,288,10.0,11.0,72,0.00,,,0.00,0.0,meteohub,2013-01-17 04:22:00,
2013-01-16 22:27:00,32.7,24.4,30.30,WNW,294,9.0,11.0,71,0.00,,,0.00,0.0,meteohub,2013-01-17 04:27:00,
2013-01-16 22:32:00,33.1,24.6,30.31,WNW,295,9.0,11.0,71,0.00,,,0.00,0.0,meteohub,2013-01-17 04:32:00,
2013-01-16 22:37:00,33.3,24.8,30.31,WNW,294,9.0,11.0,71,0.00,,,0.00,0.0,meteohub,2013-01-17 04:37:00,
2013-01-16 22:42:00,33.1,24.4,30.31,WNW,294,9.0,10.0,70,0.00,,,0.00,0.0,meteohub,2013-01-17 04:42:00,
2013-01-16 22:47:00,32.9,24.6,30.31,WNW,294,10.0,10.0,71,0.00,,,0.00,0.0,meteohub,2013-01-17 04:47:00,
2013-01-16 22:52:00,33.3,24.8,30.32,WNW,296,10.0,10.0,71,0.00,,,0.00,0.0,meteohub,2013-01-17 04:52:00,
2013-01-16 22:57:00,33.4,24.8,30.32,WNW,298,10.0,11.0,70,0.00,,,0.00,0.0,meteohub,2013-01-17 04:57:00,
2013-01-16 23:00:00,33.4,24.8,30.32,WNW,298,9.0,11.0,70,0.00,,,0.00,0.0,meteohub,2013-01-17 05:00:00,
2013-01-16 23:03:00,33.4,24.8,30.32,WNW,300,9.0,11.0,70,0.00,,,0.00,0.0,meteohub,2013-01-17 05:03:00,
2013-01-16 23:08:00,33.4,24.8,30.32,WNW,303,8.0,11.0,70,0.00,,,0.00,0.0,meteohub,2013-01-17 05:08:00,
2013-01-16 23:13:00,33.3,24.6,30.32,WNW,303,9.0,11.0,70,0.00,,,0.00,0.0,meteohub,2013-01-17 05:13:00,
2013-01-16 23:18:00,32.7,24.1,30.33,WNW,303,8.0,10.0,70,0.00,,,0.00,0.0,meteohub,2013-01-17 05:18:00,
2013-01-16 23:24:00,32.4,24.1,30.33,WNW,303,8.0,10.0,71,0.00,,,0.00,0.0,meteohub,2013-01-17 05:24:00,
2013-01-16 23:29:00,32.2,23.9,30.33,NW,304,9.0,9.0,71,0.00,,,0.00,0.0,meteohub,2013-01-17 05:29:00,
2013-01-16 23:34:00,32.2,23.9,30.33,NW,305,9.0,9.0,71,0.00,,,0.00,0.0,meteohub,2013-01-17 05:34:00,
2013-01-16 23:39:00,32.4,24.1,30.33,NW,305,7.0,10.0,71,0.00,,,0.00,0.0,meteohub,2013-01-17 05:39:00,
2013-01-16 23:44:00,32.0,23.7,30.34,NW,305,7.0,10.0,71,0.00,,,0.00,0.0,meteohub,2013-01-17 05:44:00,
2013-01-16 23:49:00,31.5,23.5,30.34,NW,306,7.0,10.0,72,0.00,,,0.00,0.0,meteohub,2013-01-17 05:49:00,
2013-01-16 23:54:00,31.6,23.7,30.34,NW,309,7.0,9.0,72,0.00,,,0.00,0.0,meteohub,2013-01-17 05:54:00,
2013-01-16 23:59:00,32.2,23.9,30.35,NW,312,8.0,8.0,71,0.00,,,0.00,0.0,meteohub,2013-01-17 05:59:00,